Date,TemperatureHighF,TemperatureAvgF,TemperatureLowF,DewpointHighF,DewpointAvgF,DewpointLowF,HumidityHigh,HumidityAvg,HumidityLow,PressureMaxIn,PressureMinIn,WindSpeedMaxMPH,WindSpeedAvgMPH,GustSpeedMaxMPH,PrecipitationSumIn
2013-3-1,43,35,32,30,26,20,82,69,52,29.61,29.44,14,3,14,0.05
2013-3-2,37,30,25,20,17,13,66,57,43,29.62,29.55,14,6,14,0.00
2013-3-3,34,26,22,18,12,8,66,54,45,29.61,29.52,18,7,18,0.01
2013-3-4,34,28,25,18,15,12,66,57,43,29.75,29.34,24,8,24,0.00
2013-3-5,50,34,29,21,18,14,67,52,26,29.89,29.43,14,4,14,0.00
2013-3-6,44,36,28,28,21,15,72,56,41,29.65,29.55,15,3,15,0.00
2013-3-7,40,34,30,26,21,14,83,58,37,30.00,29.62,9,2,9,0.01
2013-3-8,51,29,0,32,25,16,84,63,42,30.14,29.93,8,0,8,0.08
2013-3-9,58,17,0,24,21,11,74,31,16,30.19,30.11,7,0,7,0.08
2013-3-10,60,40,22,30,21,12,83,52,17,30.19,30.02,14,3,14,0.00
2013-3-11,49,43,36,40,33,28,79,68,56,30.07,29.81,18,4,18,0.00
2013-3-12,52,48,38,51,43,29,96,84,70,29.84,29.25,21,5,21,0.58
2013-3-13,53,39,32,29,21,6,77,52,19,29.72,29.39,14,4,14,0.00
2013-3-14,32,23,0,19,4,-21,56,32,22,29.75,29.66,23,7,23,0.00
2013-3-15,39,26,0,28,12,-1,83,40,27,29.79,0.00,19,3,19,0.01
2013-3-16,43,30,20,20,8,-3,64,42,18,29.76,29.59,11,3,11,0.00
2013-3-17,40,28,18,10,0,-10,53,32,15,30.18,29.44,20,5,20,0.00
2013-3-18,40,27,14,22,2,-10,78,38,15,30.29,29.86,10,2,10,0.00
2013-3-19,40,32,25,32,26,20,85,78,67,29.91,29.52,6,0,6,0.06
2013-3-20,40,27,17,20,14,8,78,61,31,29.65,29.59,11,2,11,0.02
2013-3-21,47,29,12,20,5,-7,74,42,16,29.65,29.48,12,3,12,0.11
2013-3-22,30,30,30,16,16,16,55,55,55,29.64,29.63,9,7,9,0.04
2013-3-23,42,35,31,18,15,12,55,44,30,29.73,29.33,19,8,19,0.00
2013-3-24,55,38,31,19,16,9,55,43,17,29.74,29.28,11,3,11,0.00
2013-3-25,47,33,0,24,20,18,62,45,34,29.61,29.06,8,2,8,0.00
2013-3-26,55,31,0,25,17,6,70,31,15,29.69,0.00,12,1,12,0.00
2013-3-27,57,24,0,26,19,9,59,25,21,29.78,0.00,19,3,19,0.00
2013-3-28,52,34,0,32,27,21,74,45,42,29.94,0.00,12,4,12,0.00
2013-3-29,54,44,37,29,26,21,65,51,29,29.96,29.89,17,6,17,0.00
2013-3-30,61,45,29,29,18,6,75,41,14,29.97,29.89,15,4,15,0.00
2013-3-31,57,41,0,38,23,14,87,47,20,29.96,29.54,18,3,18,0.12